Location: ActonStarParty
(42.4766°N, 71.4538°W)
Time: 19:34:09
(UTC-04:00)

Cosmos 1300 - Visible Passes

Search period start: 18 April 2015 00:00
Search period end: 28 April 2015 00:00
Orbit: 521 x 526 km, 82.5° (Epoch: 17 April)

Date Brightness Start Highest point End Pass type
(mag) Time Alt. Az. Time Alt. Az. Time Alt. Az.
18 Apr 2.8 20:17:44 10° S 20:21:36 84° W 20:25:30 10° N visible
19 Apr 2.7 20:05:13 10° S 20:09:04 85° E 20:12:58 10° N visible
22 Apr 6.4 21:06:43 10° W 21:07:46 11° WNW 21:08:37 10° NW visible
23 Apr 6.2 20:53:27 10° W 20:55:07 12° WNW 20:56:38 10° NW visible
24 Apr 6.2 20:40:21 10° WSW 20:42:27 14° WNW 20:44:24 10° NW visible
25 Apr 6.1 20:27:22 10° WSW 20:29:47 15° WNW 20:32:04 10° NNW visible
26 Apr 6.0 20:14:26 10° WSW 20:17:06 17° WNW 20:19:41 10° NNW visible
